[[{"header":{"parameterUnit":"m.s-1","parameterCategory":1,"la1":30.2991,"la2":30.254,"lo1":-89.0895,"lo2":-89.0444,"dy":0.0017,"dx":0.0017,"nx":28,"ny":28,"refTime":"2025-04-08T09:00:00:Z","depth":0,"parameterNumber":2,"parameterNumberName":"U-component_of_WINDS"},"data":[0,0,0,0,0,0,0,0,0,0,0,0,0,0,0,0,0,0,0,0,0,0,0,0,0,0,0,0,0,0,0,0,0,0,0,0,0,0,0,0,0,0,0,0,0,0,0,0,0,0,0,0,0,0,0,0,0,0,5.5675,5.5678,0,5.5901,5.5904,5.5907,5.5856,5.5852,5.5848,5.5844,5.6075,5.6085,5.6095,0,0,0,0,0,0,0,0,0,0,0,0,0,5.5199,5.5208,5.5675,5.5678,5.5681,5.5901,5.5904,5.5907,5.5857,5.5852,5.5846,5.5842,5.6072,5.6084,5.6096,0,0,0,0,0,0,0,0,0,0,0,0,0,5.5413,5.5211,5.5675,5.5682,5.5685,5.59,5.5904,5.5908,5.5858,5.5852,5.5845,5.5839,5.6068,5.6083,5.6098,5.632,0,0,5.6144,5.6151,0,0,0,0,0,0,0,0,5.5401,5.5431,5.5678,5.5682,5.5686,5.5844,5.5821,5.6046,5.586,5.5792,5.5843,5.5836,5.6004,5.6024,5.608,5.6331,5.634,5.6146,5.6155,5.6161,5.6166,0,0,0,0,0,0,0,5.5386,5.5421,5.5765,5.5682,5.5687,5.5674,5.5697,5.5863,5.5931,5.5798,5.5795,5.5822,5.6004,5.6066,5.6085,5.6344,5.6145,5.6159,5.6168,5.6174,5.6785,5.6792,0,0,0,0,0,0,5.5368,5.5409,5.5757,5.5771,5.5525,5.5688,5.5714,5.58,5.5929,5.5943,5.5827,5.5819,5.6043,5.6068,5.6093,5.6359,5.6161,5.6176,5.6184,5.6778,5.6787,5.6794,0,0,0,0,0,0,5.5358,5.54,5.5748,5.5589,5.5633,5.5703,5.5799,5.5807,5.5869,5.5951,5.5963,5.5877,5.6039,5.6072,5.6263,5.6367,5.6182,5.6196,5.677,5.6781,5.679,5.6895,0,0,0,0,0,0,5.5345,5.5397,5.5482,5.5592,5.5641,5.5915,5.5806,5.5817,5.5895,5.5886,5.6002,5.6015,5.6036,5.6241,5.6278,5.6384,5.6208,5.6761,5.6774,5.6787,5.6882,5.6908,5.6929,0,0,0,0,0,5.5328,5.5503,5.5487,5.5529,5.575,5.5921,5.595,5.5971,5.5904,5.5989,5.6042,5.6011,5.635,5.6261,5.6303,5.6415,5.6754,5.6771,5.6786,5.6872,5.6903,5.6929,0,0,0,0,0,0,5.5404,5.5518,5.5501,5.5716,5.5809,5.5912,5.6021,5.6003,5.6118,5.6105,5.6126,5.6153,5.6347,5.64,5.6299,5.6635,5.6542,5.6567,5.6593,5.6623,5.6646,5.6628,5.6221,0,0,0,0,0,5.5446,5.5576,5.5668,5.5849,5.5897,5.5952,5.6027,5.6035,5.6133,5.6172,5.6239,5.6334,5.6462,5.6546,5.6668,5.689,5.6913,5.6988,5.7011,5.703,5.7051,5.717,5.7204,5.6847,5.6847,5.6846,0,0,5.5534,5.5612,5.5693,5.5867,5.594,5.6073,5.5985,5.6131,5.6229,5.6194,5.6378,5.6431,5.6539,5.6746,5.684,5.6796,5.7155,5.7051,5.7065,5.7076,5.719,5.7224,5.7254,5.6858,5.6856,5.6854,0,0,5.5762,5.5835,5.5992,5.6067,5.6179,5.6214,5.6252,5.6358,5.6391,5.6576,5.6551,5.6669,5.689,5.6967,5.7035,5.7291,5.7265,5.733,5.7452,5.7568,5.7596,5.7621,5.771,5.7742,5.7351,5.7351,5.7351,0,5.5857,5.6057,5.6076,5.6224,5.63,5.6274,5.6433,5.6505,5.6651,5.6704,5.6652,5.6927,5.6998,5.7221,5.7283,5.734,5.7383,5.7316,5.759,5.7616,5.7639,5.7724,5.7758,5.7358,5.7357,5.7357,5.7356,0,5.6167,5.6306,5.6421,5.6561,5.6651,5.6804,5.6845,5.6934,5.6934,5.6974,5.7162,5.7246,5.7384,5.7438,5.744,5.7662,5.763,5.7585,5.7491,5.768,5.776,5.7793,5.7368,5.7366,5.7364,5.7362,0,0,5.6449,5.6597,5.6639,5.6701,5.6822,5.693,5.7081,5.7215,5.7289,5.7391,5.7517,5.7703,5.7661,5.7739,5.7749,5.7851,5.8045,5.7793,5.7796,5.7835,5.8292,5.8324,5.8362,5.803,5.8036,5.8041,5.8282,0,5.6686,5.6952,5.6973,5.7212,5.734,5.7316,5.7447,5.7535,5.7577,5.769,5.7736,5.7867,5.7803,5.7849,5.7949,5.8001,5.8137,5.7984,5.8146,5.8151,5.8117,5.8404,5.8439,5.8662,5.8314,5.8319,5.8323,0,5.6999,5.7108,5.736,5.746,5.7515,5.7632,5.7756,5.7866,5.7964,5.7987,5.8073,5.8069,5.8223,5.8125,5.8337,5.8232,5.8299,5.8335,5.8344,5.8358,5.8247,5.8424,5.8734,5.8767,5.8373,5.8369,5.8366,0,5.7176,5.7387,5.7564,5.7619,5.7741,5.7824,5.7879,5.7971,5.805,5.8158,5.8209,5.8334,5.8402,5.8499,5.8528,5.8455,5.8738,5.8643,5.876,5.8759,5.882,5.8815,5.9143,5.8867,5.8866,5.8866,5.8865,0,5.7438,5.7592,5.7645,5.7754,5.7926,5.7948,5.8117,5.8167,5.8249,5.8367,5.8355,5.8465,5.8498,5.8614,5.8639,5.8809,5.8841,5.8862,5.8866,5.8862,5.8859,5.8905,5.889,5.8875,5.8873,5.8871,5.8869,0,5.7665,5.7707,5.7898,5.7998,5.8026,5.8148,5.8233,5.8338,5.8376,5.8525,5.8561,5.8622,5.8758,5.8797,5.8961,5.8977,5.9176,5.9167,5.9142,5.9142,5.9255,5.9243,5.9623,5.9673,5.9366,5.9369,5.9371,0,5.7828,5.7946,5.8058,5.8135,5.8193,5.8319,5.8398,5.8425,5.8508,5.8628,5.8718,5.8852,5.896,5.9178,5.9237,5.9361,5.9354,5.9478,5.9372,5.9364,5.9353,5.9345,5.9355,5.9498,5.9501,5.9503,5.9506,0,5.8113,5.8127,5.8242,5.8365,5.846,5.8559,5.8653,5.8717,5.8756,5.8851,5.8989,5.9073,5.9239,5.9371,5.9497,5.9553,5.9536,5.9539,5.9572,5.9568,5.9547,5.9557,5.9195,5.9529,5.9527,5.9525,5.9524,5.9523,5.8312,5.8414,5.8508,5.8637,5.871,5.8798,5.89,5.8951,5.9066,5.9203,5.9212,5.9361,5.9455,5.9622,5.9684,5.9801,5.9764,5.9813,5.9825,5.9836,5.9844,5.953,5.9824,5.9824,5.9823,5.9822,5.9822,0,5.8593,5.8652,5.877,5.8901,5.9002,5.8977,5.908,5.9165,5.9296,5.9385,5.9492,5.9649,5.9777,5.9846,5.9973,6.0053,6.0048,6.0085,6.0078,6.0091,5.9871,5.9828,6.0087,6.0086,6.0086,6.0086,6.0086,6.0086,5.8752,5.8923,5.8949,5.9156,5.9214,5.9359,5.942,5.95,5.9571,5.9747,5.9853,5.9896,5.9977,6.0109,6.0225,6.0241,6.0288,6.0329,6.0341,6.0134,6.0107,6.0081,6.0041,6.034,6.034,6.0551,6.0553,6.0555]},{"header":{"parameterUnit":"m.s-1","parameterCategory":1,"la1":30.2991,"la2":30.254,"lo1":-89.0895,"lo2":-89.0444,"dy":0.0017,"dx":0.0017,"nx":28,"ny":28,"refTime":"2025-04-08T09:00:00:Z","depth":0,"parameterNumber":3,"parameterNumberName":"V-component_of_WINDS"},"data":[0,0,0,0,0,0,0,0,0,0,0,0,0,0,0,0,0,0,0,0,0,0,0,0,0,0,0,0,0,0,0,0,0,0,0,0,0,0,0,0,0,0,0,0,0,0,0,0,0,0,0,0,0,0,0,0,0,0,-0.5771,-0.5771,0,-0.5765,-0.5765,-0.5765,-0.5765,-0.5766,-0.5766,-0.5766,-0.5756,-0.5756,-0.5756,0,0,0,0,0,0,0,0,0,0,0,0,0,-0.5779,-0.5779,-0.5771,-0.5771,-0.5771,-0.5766,-0.5765,-0.5765,-0.5765,-0.5766,-0.5766,-0.5766,-0.5757,-0.5756,-0.5756,0,0,0,0,0,0,0,0,0,0,0,0,0,-0.5775,-0.5779,-0.5771,-0.577,-0.577,-0.5766,-0.5765,-0.5765,-0.5765,-0.5766,-0.5766,-0.5766,-0.5757,-0.5756,-0.5756,-0.575,0,0,-0.5754,-0.5754,0,0,0,0,0,0,0,0,-0.5775,-0.5774,-0.577,-0.577,-0.577,-0.5766,-0.5765,-0.576,-0.5765,-0.5767,-0.5766,-0.5766,-0.5759,-0.5759,-0.5757,-0.575,-0.5749,-0.5754,-0.5754,-0.5754,-0.5754,0,0,0,0,0,0,0,-0.5775,-0.5775,-0.5769,-0.577,-0.577,-0.5769,-0.5769,-0.5764,-0.5762,-0.5767,-0.5767,-0.5767,-0.5759,-0.5758,-0.5757,-0.5749,-0.5754,-0.5754,-0.5754,-0.5753,-0.5738,-0.5738,0,0,0,0,0,0,-0.5776,-0.5775,-0.5769,-0.5769,-0.5773,-0.5769,-0.5769,-0.5767,-0.5763,-0.5762,-0.5766,-0.5767,-0.5759,-0.5758,-0.5757,-0.5751,-0.5754,-0.5753,-0.5753,-0.5738,-0.5738,-0.5738,0,0,0,0,0,0,-0.5776,-0.5776,-0.5769,-0.5772,-0.5771,-0.5769,-0.5767,-0.5767,-0.5766,-0.5762,-0.5762,-0.5765,-0.5759,-0.5757,-0.5752,-0.575,-0.5753,-0.5753,-0.5738,-0.5738,-0.5738,-0.5738,0,0,0,0,0,0,-0.5776,-0.5776,-0.5774,-0.5772,-0.5771,-0.5765,-0.5767,-0.5767,-0.5765,-0.5765,-0.5761,-0.576,-0.5759,-0.5753,-0.5752,-0.575,-0.5752,-0.5738,-0.5738,-0.5738,-0.5738,-0.5738,-0.5737,0,0,0,0,0,-0.5777,-0.5773,-0.5774,-0.5773,-0.5769,-0.5765,-0.5765,-0.5764,-0.5765,-0.5763,-0.5761,-0.576,-0.5751,-0.5753,-0.5751,-0.5749,-0.5738,-0.5738,-0.5738,-0.5738,-0.5738,-0.5737,0,0,0,0,0,0,-0.5773,-0.5773,-0.5773,-0.5769,-0.5768,-0.5765,-0.5763,-0.5763,-0.576,-0.576,-0.5758,-0.5757,-0.5752,-0.575,-0.5752,-0.5744,-0.5745,-0.5744,-0.5745,-0.5745,-0.5745,-0.5745,-0.5752,0,0,0,0,0,-0.5772,-0.5771,-0.577,-0.5766,-0.5765,-0.5764,-0.5763,-0.5763,-0.576,-0.5759,-0.5756,-0.5753,-0.575,-0.5747,-0.5744,-0.5738,-0.5737,-0.5736,-0.5735,-0.5735,-0.5734,-0.5732,-0.5731,-0.5737,-0.5737,-0.5737,0,0,-0.577,-0.5769,-0.5768,-0.5765,-0.5764,-0.5762,-0.5764,-0.576,-0.5759,-0.5758,-0.5754,-0.5752,-0.5748,-0.5743,-0.5741,-0.5741,-0.5733,-0.5735,-0.5735,-0.5734,-0.5731,-0.5731,-0.573,-0.5737,-0.5737,-0.5737,0,0,-0.5764,-0.5763,-0.5761,-0.576,-0.5758,-0.5758,-0.5758,-0.5756,-0.5755,-0.5751,-0.5751,-0.5748,-0.5742,-0.5739,-0.5737,-0.5733,-0.5732,-0.5731,-0.5729,-0.5727,-0.5726,-0.5726,-0.5724,-0.5724,-0.5731,-0.5731,-0.5731,0,-0.576,-0.5758,-0.5759,-0.5756,-0.5755,-0.5757,-0.5754,-0.5752,-0.5749,-0.5748,-0.5749,-0.5742,-0.574,-0.5735,-0.5734,-0.5732,-0.5731,-0.5731,-0.5727,-0.5726,-0.5726,-0.5724,-0.5724,-0.5731,-0.5731,-0.5731,-0.5731,0,-0.5754,-0.5752,-0.575,-0.5749,-0.5747,-0.5744,-0.5745,-0.5743,-0.5744,-0.5743,-0.5739,-0.5736,-0.5733,-0.5732,-0.5731,-0.5726,-0.5727,-0.5727,-0.5728,-0.5725,-0.5724,-0.5723,-0.5731,-0.5731,-0.5731,-0.5731,0,0,-0.5744,-0.5745,-0.5744,-0.5744,-0.5744,-0.5742,-0.5739,-0.5737,-0.5736,-0.5734,-0.5732,-0.5727,-0.5728,-0.5726,-0.5725,-0.5723,-0.572,-0.5724,-0.5724,-0.5723,-0.5715,-0.5715,-0.5714,-0.572,-0.572,-0.572,-0.5716,0,-0.5738,-0.5735,-0.5736,-0.5732,-0.5731,-0.5733,-0.5731,-0.573,-0.573,-0.5728,-0.5727,-0.5724,-0.5725,-0.5724,-0.5722,-0.5721,-0.5718,-0.5721,-0.5717,-0.5717,-0.5718,-0.5713,-0.5712,-0.5708,-0.5715,-0.5715,-0.5715,0,-0.573,-0.573,-0.5726,-0.5727,-0.5727,-0.5725,-0.5724,-0.5722,-0.5721,-0.5721,-0.572,-0.572,-0.5717,-0.5719,-0.5715,-0.5717,-0.5715,-0.5715,-0.5714,-0.5713,-0.5715,-0.5712,-0.5707,-0.5706,-0.5714,-0.5714,-0.5714,0,-0.5723,-0.5722,-0.572,-0.572,-0.5721,-0.572,-0.572,-0.5719,-0.5718,-0.5717,-0.5717,-0.5715,-0.5713,-0.5711,-0.5711,-0.5712,-0.5707,-0.5709,-0.5706,-0.5707,-0.5704,-0.5704,-0.5699,-0.5704,-0.5704,-0.5704,-0.5704,0,-0.5716,-0.5714,-0.5717,-0.5716,-0.5714,-0.5716,-0.5713,-0.5713,-0.5713,-0.5712,-0.5713,-0.5711,-0.5711,-0.5709,-0.5709,-0.5706,-0.5705,-0.5705,-0.5705,-0.5704,-0.5704,-0.5703,-0.5703,-0.5704,-0.5704,-0.5704,-0.5704,0,-0.5708,-0.571,-0.5708,-0.571,-0.5711,-0.5709,-0.571,-0.5709,-0.5709,-0.5707,-0.5707,-0.5708,-0.5706,-0.5706,-0.5703,-0.5703,-0.5699,-0.5699,-0.5699,-0.5699,-0.5697,-0.5697,-0.569,-0.5689,-0.5695,-0.5695,-0.5695,0,-0.5703,-0.5701,-0.5704,-0.5704,-0.5704,-0.5704,-0.5703,-0.5705,-0.5705,-0.5705,-0.5703,-0.5702,-0.5701,-0.5698,-0.5697,-0.5695,-0.5695,-0.5693,-0.5695,-0.5695,-0.5695,-0.5695,-0.5695,-0.5692,-0.5692,-0.5692,-0.5692,0,-0.5694,-0.5695,-0.5695,-0.5696,-0.5696,-0.5697,-0.5697,-0.5697,-0.5699,-0.5698,-0.5697,-0.5697,-0.5695,-0.5693,-0.5692,-0.5691,-0.5692,-0.5692,-0.5691,-0.5691,-0.5691,-0.5691,-0.5698,-0.5692,-0.5692,-0.5692,-0.5692,-0.5692,-0.5687,-0.5686,-0.5688,-0.5688,-0.5689,-0.569,-0.5689,-0.5691,-0.569,-0.569,-0.5691,-0.569,-0.569,-0.5689,-0.5688,-0.5687,-0.5687,-0.5686,-0.5686,-0.5686,-0.5686,-0.5692,-0.5687,-0.5687,-0.5687,-0.5687,-0.5687,0,-0.5677,-0.568,-0.568,-0.5682,-0.5682,-0.5685,-0.5685,-0.5685,-0.5685,-0.5685,-0.5685,-0.5684,-0.5683,-0.5684,-0.5683,-0.5681,-0.5682,-0.5681,-0.5681,-0.5681,-0.5685,-0.5686,-0.5681,-0.5681,-0.5681,-0.5681,-0.5681,-0.5681,-0.5673,-0.5672,-0.5674,-0.5674,-0.5676,-0.5676,-0.5676,-0.5677,-0.5678,-0.5677,-0.5677,-0.5678,-0.5678,-0.5678,-0.5677,-0.5677,-0.5677,-0.5676,-0.5676,-0.568,-0.568,-0.5681,-0.5681,-0.5676,-0.5676,-0.5672,-0.5672,-0.5672]}]]